Location: Newark
(35.2672°N, 80.7344°W)
Time: 04:49:45
(UTC+00:00)

Tiros 1 - Pass Details

Date: 29 January 2020
Orbit: 631 x 664 km, 48.4° (Epoch: 18 February)

Event Time Altitude Azimuth Distance (km) Brightness Sun altitude
Rises 14:06:20 0° 182° (S) 2,901 11.0 17.2°
Reaches altitude 10° 14:09:56 10° 153° (SSE) 2,003 11.1 17.8°
Maximum altitude 14:11:52 13° 128° (SE) 1,845 12.5 18.1°
Drops below altitude 10° 14:13:49 10° 103° (ESE) 2,014 11.0 18.4°
Sets 14:17:26 0° 74° (ENE) 2,934 11.0 19.0°
